Flag for Germany Weather past 2 weeks in Singen (Hohentwiel), Baden-Württemberg, Germany

Now
47 °F

Cool.


Feels Like: 45 °F
Forecast: 46 / 50 °F
Wind: 5 mph from Southwest

Location: Konstanz

Current Time: Mar 29, 2015 at 1:18:37 AM

Latest Report: Mar 29, 2015 at 12:00 AM


Visibility: 31 mi

Pressure: 30.10 "Hg

Humidity: 83%

Dew point: 42 °F

Location of Singen (Hohentwiel)Location

Historic Weather in Singen (Hohentwiel) — Graph

°F

Singen (Hohentwiel) temperature yesterday

Maximum temperature yesterday: 56 °F (at 3:00 PM)
Minimum temperature yesterday: 36 °F (at 6:00 AM)
Average temperature yesterday: 46 °F

Past Weeks' High & Low Weather Summary

 TemperatureHumidityPressure
High64 °F (Mar 18, 4:00 PM)100% (Mar 24, 6:00 AM)30.31 "Hg (Mar 24, 6:00 AM)
Low30 °F (Mar 14, 7:00 AM)31% (Mar 20, 5:00 PM)29.56 "Hg (Mar 25, 2:00 PM)
Average45 °F71%30.07 "Hg
* Reported Midnight between Mar 13 and Mar 14 — Midnight between Mar 28 and Mar 29, Singen (Hohentwiel), Weather by CustomWeather, © 2015

Note: Actual official high and low records may vary slightly from our data, if they occured in-between our weather recording intervals... More about our weather records

Advertising

Singen (Hohentwiel) weather history for previous 24 hours

 ConditionsComfort  
Time TempWeatherWind HumidityBarometerVisibility
12:00 AM
Sun, Mar 29
47 °FCool.5 mph83%30.10 "Hg31 mi
11:00 PM
Sat, Mar 28
46 °FDrizzle. Overcast.6 mph86%30.11 "Hg22 mi
10:00 PM47 °FCool.3 mph76%30.12 "Hg31 mi
9:00 PM47 °FOvercast.2 mph78%30.12 "Hg22 mi
8:00 PM46 °FLight rain. Overcast.2 mph79%30.14 "Hg19 mi
7:00 PM47 °FLight rain. Overcast.5 mph82%30.13 "Hg7 mi
6:00 PM51 °FLight rain. Overcast.6 mph63%30.10 "Hg9 mi
5:00 PM55 °FOvercast.5 mph40%30.06 "Hg22 mi
4:00 PM56 °FPartly sunny.2 mph38%30.06 "Hg22 mi
3:00 PM56 °FScattered clouds.2 mph39%30.08 "Hg22 mi
2:00 PM55 °FPassing clouds.3 mph42%30.11 "Hg22 mi
1:00 PM53 °FPassing clouds.2 mph48%30.15 "Hg25 mi
12:00 PM51 °FPassing clouds.2 mph50%30.18 "Hg25 mi
11:00 AM49 °FPassing clouds.2 mph55%30.21 "Hg25 mi
10:00 AM46 °FPassing clouds.2 mph67%30.24 "Hg22 mi
9:00 AM43 °FPassing clouds.2 mph67%30.27 "Hg19 mi
8:00 AM39 °FPartly sunny.1 mph79%30.29 "Hg22 mi
7:00 AM37 °FOvercast.1 mph87%30.31 "Hg25 mi
6:00 AM36 °FOvercast.1 mph86%30.31 "Hg19 mi
4:00 AM37 °FChilly.1 mph83%30.31 "Hg25 mi
3:00 AM37 °FChilly.1 mph86%30.31 "Hg25 mi
2:00 AM39 °FChilly.2 mph79%30.31 "Hg28 mi
1:00 AM40 °FChilly.1 mph78%30.31 "Hg31 mi
Weather by CustomWeather, © 2015

See weather overviewHow to use our weather pages